sat.trackr.live / text

‹ back to catalog

STARLINK-30150

NORAD 57621 · 2023-119V

PAYLOAD ACTIVE UNKNOWN

§ Identity

Operator
Country
US
Launch date
2023-08-11
Launch site
AFETR
Launch vehicle
Mass (kg)
RCS (m²)

Purposes: comms

External: N2YO · Heavens-Above · Gunter

§ Orbital elements

Epoch: 2026-09-20T16:58:39.094752Z

Period
94.27 min
Inclination
43.0041°
Eccentricity
0.0001720
Mean motion
15.27576656 rev/d
Perigee alt
481.9 km
Apogee alt
484.2 km
Semi-major
6,861.2 km
B*
-6.2980e-6
RAAN
60.0708°
Arg perigee
278.2304°
Mean anomaly
81.8352°
Rev number
17,291

§ Raw data

STARLINK-301501 57621U 23119V   26263.70739693 -.00000436  00000+0 -62980-5 0  99942 57621  43.0041  60.0708 0001720 278.2304  81.8352 15.27576656172919

JSON: /api/v1/satellites/57621 · /tle

For live sub-satellite position, see the globe view (requires WebGL).

§ Visibility from observer

Set your observer location to see the next 7 days of passes ≥ 10°. The values pass through the URL so the page stays shareable.

No JS? Fill the form by hand. The geolocation button needs JavaScript.